Location: Unspecified
(0.0000°N, 0.0000°E)
Time: 03:14:09
(UTC+00:00)

GONETS D1M 1 - Pass Details

Date: 23 May 2026
Orbit: 1435 x 1448 km, 82.5° (Epoch: 9 June)

Event Time Altitude Azimuth Distance (km) Brightness Sun altitude
Rises 18:03:58 0° 339° (NNW) 4,516 9.9 -1.7°
Reaches altitude 10° 18:07:02 10° 332° (NNW) 3,539 9.5 -2.4°
Maximum altitude 18:14:42 39° 267° (W) 2,036 8.2 -4.2°
Drops below altitude 10° 18:22:24 10° 201° (SSW) 3,544 8.7 -6.0°
Sets 18:25:30 0° 193° (SSW) 4,523 9.2 -6.7°
